Preview of NWS' New Version of Forecast
This preview is not operational and should not be used for support decisions.

Regional Weather Roundup (RWR)

Issued by National Weather Service (NWS)

                            
000
ASUS46 KSEW 182310
RWRWA 

WASHINGTON REGIONAL WEATHER ROUNDUP
NATIONAL WEATHER SERVICE SEATTLE WA
400 PM PDT THU APR 18 2019

NOTE:"FAIR" INDICATES FEW OR NO CLOUDS BELOW 12,000 FEET WITH NO 
SIGNIFICANT WEATHER AND/OR OBSTRUCTIONS TO VISIBILITY.

WAZ507-509-555>559-190000-
SEATTLE, TACOMA, EVERETT, AND VICINITY
  
CITY           SKY/WX    TMP DP  RH WIND       PRES   REMARKS
EVERETT        CLOUDY    61  47  59 S18       30.12F                  
BOEING FIELD   CLOUDY    63  48  58 S10       30.13F                  
RENTON         CLOUDY    64  48  56 S7        30.13F                  
SEATAC AIRPORT CLOUDY    61  48  62 SW12      30.13F                  
JBLM-MCCHORD   CLOUDY    64  58  82 NW3       30.14                   
PUYALLUP       CLOUDY    66  48  52 CALM      30.14F                  
BREMERTON      CLOUDY    59  52  77 SW12      30.14F                  
JBLM-FT LEWIS  PTSUNNY   65  57  76 W3        30.13F                  
TACOMA NARROWS CLOUDY    60  50  69 SW5       30.14F                  
$$
 
WAZ001-503-506-510-514-515-190000-
NORTH INTERIOR
  
CITY           SKY/WX    TMP DP  RH WIND       PRES   REMARKS
BELLINGHAM     CLOUDY    58  47  66 S6        30.11F                  
FRIDAY HARBOR  CLOUDY    55  49  80 CALM      30.12F                  
EASTSOUND      LGT RAIN  55  52  88 S7        30.10S                  
PORT ANGELES   CLOUDY    53  50  89 N3        30.12S                  
EDIZ HOOK      CLOUDY    52  50  92 W3        30.12F                  
PORT TOWNSEND  PTSUNNY   59  54  82 NW8       30.09F                  
NAS WHIDBEY    CLOUDY    63  48  58 SE14G20   30.13F                  
ARLINGTON      CLOUDY    59  51  75 E9        30.12F                  
BURLINGTON     PTSUNNY   61  48  63 SE9G16    30.12F                  
$$
 
WAZ020-022-039-040-504-511-512-190000-
SOUTHWEST INTERIOR
  
CITY           SKY/WX    TMP DP  RH WIND       PRES   REMARKS
SHELTON        CLOUDY    61  52  72 W12       30.12F                  
OLYMPIA        CLOUDY    66  48  52 VRB3      30.13F                  
CHEHALIS       FAIR      72  54  53 CALM      30.12F                  
KELSO          MOSUNNY   71  48  43 CALM      30.12F                  
VANCOUVER      MOSUNNY   73  47  39 CALM      30.11F                  
SCAPPOOSE, OR  MOSUNNY   74  52  46 CALM      30.11F                  
PORTLAND, OR   PTSUNNY   73  47  39 NE5       30.12F                  
$$
 
WAZ021-516-517-190000-
WASHINGTON COAST
  
CITY           SKY/WX    TMP DP  RH WIND       PRES   REMARKS
FORKS          LGT RAIN  52  51  97 S8        30.14F                  
HOQUIAM        LGT RAIN  55  53  93 W5        30.16F FOG              
ASTORIA, OR    PTSUNNY   60  50  69 W10       30.15F                  
$$
 
WAZ019-023-024-040-567>569-190000-
CASCADE MOUNTAINS AND COLUMBIA GORGE
  
CITY           SKY/WX    TMP DP  RH WIND       PRES   REMARKS
STAMPEDE PASS  CLOUDY    53  43  68 CALM      30.18F                  
TROUTDALE, OR  PTSUNNY   73  49  42 NE3       30.11F                  
HOOD RIVER, OR CLEAR     77  46  33 MISG      30.09F                  
THE DALLES, OR MOSUNNY   77  50  38 N7        30.07F                  
$$

WAZ026-027-041>044-520-521-190000-
EAST SLOPES
  
CITY           SKY/WX    TMP DP  RH WIND       PRES   REMARKS
OMAK           CLOUDY    65  46  50 S8        30.09F                  
WENATCHEE      MOSUNNY   67  45  45 SE6       30.08F                  
ELLENSBURG     MOSUNNY   71  47  42 VRB3      30.10F                  
YAKIMA         MOSUNNY   73  46  38 CALM      30.08F                  
SUNNYSIDE ARPT CLEAR     78  50  37 CALM      30.06F                  
YAKIMA TC      FAIR      73  43  35 S5        30.07F                  
$$

WAZ028-034-035-190000-
COLUMBIA BASIN
  
CITY           SKY/WX    TMP DP  RH WIND       PRES   REMARKS
EPHRATA        SUNNY     72  47  40 S10       30.09F                  
MOSES LAKE     SUNNY     72  44  36 S12       30.11F                  
PASCO          SUNNY     83  46  27 SW13      30.08F                  
RICHLAND ARPT  CLEAR     80  48  31 S8        30.07F                  
HERMISTON, OR  SUNNY     80  49  33 VRB7      30.08F                  
$$

WAZ036>038-190000-
NORTHEAST WASHINGTON
  
CITY           SKY/WX    TMP DP  RH WIND       PRES   REMARKS
SPOKANE GEIGER PTSUNNY   64  42  44 S12       30.15F                  
SPOKANE FELTS  PTSUNNY   67  42  40 SW13      30.14F                  
FAIRCHILD AFB  CLOUDY    65  45  49 S9        30.14F                  
COEURDALENE,ID CLOUDY    62  42  47 N3        30.16F                  
DEER PARK      PTSUNNY   63  40  42 CALM      30.15F                  
$$

WAZ029>033-190000-
SOUTHEAST WASHINGTON
  
CITY           SKY/WX    TMP DP  RH WIND       PRES   REMARKS
PULLMAN        PTSUNNY   67  47  48 VRB3      30.17F                  
LEWISTON, ID   SUNNY     72  44  36 N7        30.13F                  
WALLA WALLA    SUNNY     75  46  35 W7        30.12F                  
PENDLETON, OR  SUNNY     76  50  40 NW8       30.11F                  
$$